Time,TemperatureF,DewpointF,PressureIn,WindDirection,WindDirectionDegrees,WindSpeedMPH,WindSpeedGustMPH,Humidity,HourlyPrecipIn,Conditions,Clouds,dailyrainin,SoftwareType,DateUTC
2013-08-23 00:04:00,67.8,29.7,29.50,North,0,0.0,0.0,24,0.00,,---,0.00,VWS V14.01,2013-08-23 07:04:00,
2013-08-23 00:09:00,67.6,29.6,29.50,North,0,0.0,0.0,24,0.00,,---,0.00,VWS V14.01,2013-08-23 07:09:00,
2013-08-23 00:14:00,67.5,30.4,29.50,North,0,0.0,0.0,25,0.00,,---,0.00,VWS V14.01,2013-08-23 07:14:00,
2013-08-23 00:20:00,67.3,30.3,29.50,North,0,0.0,0.0,25,0.00,,---,0.00,VWS V14.01,2013-08-23 07:20:00,
2013-08-23 00:25:00,66.7,30.8,29.50,North,0,0.0,0.0,26,0.00,,---,0.00,VWS V14.01,2013-08-23 07:25:00,
2013-08-23 00:30:00,66.6,30.6,29.50,North,0,0.0,0.0,26,0.00,,---,0.00,VWS V14.01,2013-08-23 07:30:00,
2013-08-23 00:35:00,66.4,30.5,29.50,North,0,0.0,0.0,26,0.00,,---,0.00,VWS V14.01,2013-08-23 07:35:00,
2013-08-23 00:41:00,66.2,30.3,29.50,North,0,0.0,0.0,26,0.00,,---,0.00,VWS V14.01,2013-08-23 07:41:00,
2013-08-23 00:46:00,66.2,30.3,29.50,North,0,0.0,0.0,26,0.00,,---,0.00,VWS V14.01,2013-08-23 07:46:00,
2013-08-23 00:51:00,66.2,31.3,29.50,North,0,0.0,0.0,27,0.00,,---,0.00,VWS V14.01,2013-08-23 07:51:00,
2013-08-23 00:56:00,66.4,31.4,29.50,North,0,0.0,0.0,27,0.00,,---,0.00,VWS V14.01,2013-08-23 07:56:00,
2013-08-23 01:02:00,66.7,31.7,29.50,North,0,0.0,0.0,27,0.00,,---,0.00,VWS V14.01,2013-08-23 08:02:00,
2013-08-23 01:07:00,67.1,32.0,29.50,North,0,0.0,0.0,27,0.00,,---,0.00,VWS V14.01,2013-08-23 08:07:00,
2013-08-23 01:12:00,67.1,32.0,29.50,North,0,0.0,0.0,27,0.00,,---,0.00,VWS V14.01,2013-08-23 08:12:00,
2013-08-23 01:18:00,66.6,32.5,29.50,North,0,0.0,0.0,28,0.00,,---,0.00,VWS V14.01,2013-08-23 08:18:00,
2013-08-23 01:23:00,66.2,32.2,29.50,North,0,0.0,0.0,28,0.00,,---,0.00,VWS V14.01,2013-08-23 08:23:00,
2013-08-23 01:28:00,66.2,32.2,29.50,North,0,0.0,0.0,28,0.00,,---,0.00,VWS V14.01,2013-08-23 08:28:00,
2013-08-23 01:33:00,66.4,32.3,29.50,North,0,0.0,0.0,28,0.00,,---,0.00,VWS V14.01,2013-08-23 08:33:00,
2013-08-23 01:39:00,66.6,31.6,29.50,North,0,0.0,0.0,27,0.00,,---,0.00,VWS V14.01,2013-08-23 08:39:00,
2013-08-23 01:44:00,66.7,30.8,29.50,North,0,0.0,0.0,26,0.00,,---,0.00,VWS V14.01,2013-08-23 08:44:00,
2013-08-23 01:49:00,66.7,30.8,29.50,North,0,0.0,0.0,26,0.00,,---,0.00,VWS V14.01,2013-08-23 08:49:00,
2013-08-23 01:55:00,66.9,30.0,29.50,North,0,0.0,0.0,25,0.00,,---,0.00,VWS V14.01,2013-08-23 08:55:00,
2013-08-23 02:00:00,66.9,30.0,29.50,North,0,0.0,0.0,25,0.00,,---,0.00,VWS V14.01,2013-08-23 09:00:00,
2013-08-23 02:05:00,66.9,30.0,29.50,North,0,0.0,0.0,25,0.00,,---,0.00,VWS V14.01,2013-08-23 09:05:00,
2013-08-23 02:10:00,66.9,30.0,29.50,North,0,0.0,0.0,25,0.00,,---,0.00,VWS V14.01,2013-08-23 09:10:00,
2013-08-23 02:16:00,66.9,30.0,29.53,North,0,0.0,0.0,25,0.00,,---,0.00,VWS V14.01,2013-08-23 09:16:00,
2013-08-23 02:21:00,66.9,30.0,29.53,North,0,0.0,0.0,25,0.00,,---,0.00,VWS V14.01,2013-08-23 09:21:00,
2013-08-23 02:26:00,66.7,29.8,29.53,North,0,0.0,0.0,25,0.00,,---,0.00,VWS V14.01,2013-08-23 09:26:00,
2013-08-23 02:32:00,66.6,29.7,29.53,North,0,0.0,0.0,25,0.00,,---,0.00,VWS V14.01,2013-08-23 09:32:00,
2013-08-23 02:38:00,66.2,29.4,29.53,North,0,0.0,0.0,25,0.00,,---,0.00,VWS V14.01,2013-08-23 09:38:00,
2013-08-23 02:43:00,66.0,30.2,29.53,North,0,0.0,0.0,26,0.00,,---,0.00,VWS V14.01,2013-08-23 09:43:00,
2013-08-23 02:48:00,65.8,31.0,29.53,North,0,0.0,0.0,27,0.00,,---,0.00,VWS V14.01,2013-08-23 09:48:00,
2013-08-23 02:53:00,65.7,30.8,29.53,North,0,0.0,0.0,27,0.00,,---,0.00,VWS V14.01,2013-08-23 09:53:00,
2013-08-23 02:59:00,65.3,30.5,29.53,North,0,0.0,0.0,27,0.00,,---,0.00,VWS V14.01,2013-08-23 09:59:00,
2013-08-23 03:04:00,65.1,30.3,29.53,North,0,0.0,0.0,27,0.00,,---,0.00,VWS V14.01,2013-08-23 10:04:00,
2013-08-23 03:09:00,65.1,31.2,29.53,North,0,0.0,0.0,28,0.00,,---,0.00,VWS V14.01,2013-08-23 10:09:00,
2013-08-23 03:14:00,64.9,31.1,29.53,North,0,0.0,0.0,28,0.00,,---,0.00,VWS V14.01,2013-08-23 10:14:00,
2013-08-23 03:19:00,64.8,30.9,29.53,North,0,0.0,0.0,28,0.00,,---,0.00,VWS V14.01,2013-08-23 10:19:00,
2013-08-23 03:24:00,64.6,31.6,29.53,North,0,0.0,0.0,29,0.00,,---,0.00,VWS V14.01,2013-08-23 10:24:00,
2013-08-23 03:30:00,64.4,32.3,29.53,North,0,0.0,0.0,30,0.00,,---,0.00,VWS V14.01,2013-08-23 10:30:00,
2013-08-23 03:35:00,64.2,33.0,29.53,North,0,0.0,0.0,31,0.00,,---,0.00,VWS V14.01,2013-08-23 10:35:00,
2013-08-23 03:40:00,64.0,32.8,29.53,North,0,0.0,0.0,31,0.00,,---,0.00,VWS V14.01,2013-08-23 10:40:00,
2013-08-23 03:46:00,63.9,34.2,29.53,North,0,0.0,0.0,33,0.00,,---,0.00,VWS V14.01,2013-08-23 10:46:00,
2013-08-23 03:51:00,63.7,34.1,29.53,North,0,0.0,0.0,33,0.00,,---,0.00,VWS V14.01,2013-08-23 10:51:00,
2013-08-23 03:56:00,63.5,34.7,29.53,North,0,0.0,0.0,34,0.00,,---,0.00,VWS V14.01,2013-08-23 10:56:00,
2013-08-23 04:01:00,63.0,34.2,29.53,North,0,0.0,0.0,34,0.00,,---,0.00,VWS V14.01,2013-08-23 11:01:00,
2013-08-23 04:07:00,62.6,34.6,29.53,North,0,0.0,0.0,35,0.00,,---,0.00,VWS V14.01,2013-08-23 11:07:00,
2013-08-23 04:13:00,62.2,35.0,29.53,North,0,0.0,0.0,36,0.00,,---,0.00,VWS V14.01,2013-08-23 11:13:00,
2013-08-23 04:18:00,62.1,35.5,29.53,North,0,0.0,0.0,37,0.00,,---,0.00,VWS V14.01,2013-08-23 11:18:00,
2013-08-23 04:23:00,61.9,36.0,29.53,North,0,0.0,0.0,38,0.00,,---,0.00,VWS V14.01,2013-08-23 11:23:00,
2013-08-23 04:28:00,61.9,36.0,29.53,North,0,0.0,0.0,38,0.00,,---,0.00,VWS V14.01,2013-08-23 11:28:00,
2013-08-23 04:33:00,61.9,36.0,29.53,North,0,0.0,0.0,38,0.00,,---,0.00,VWS V14.01,2013-08-23 11:33:00,
2013-08-23 04:38:00,61.9,36.7,29.53,North,0,0.0,0.0,39,0.00,,---,0.00,VWS V14.01,2013-08-23 11:38:00,
2013-08-23 04:44:00,61.7,36.5,29.53,North,0,0.0,0.0,39,0.00,,---,0.00,VWS V14.01,2013-08-23 11:44:00,
2013-08-23 04:49:00,61.7,36.5,29.53,North,0,0.0,0.0,39,0.00,,---,0.00,VWS V14.01,2013-08-23 11:49:00,
2013-08-23 04:54:00,61.7,36.5,29.53,North,0,0.0,0.0,39,0.00,,---,0.00,VWS V14.01,2013-08-23 11:54:00,
2013-08-23 05:00:00,61.5,37.0,29.53,North,0,0.0,0.0,40,0.00,,---,0.00,VWS V14.01,2013-08-23 12:00:00,
2013-08-23 05:05:00,61.5,36.3,29.53,North,0,0.0,0.0,39,0.00,,---,0.00,VWS V14.01,2013-08-23 12:05:00,
2013-08-23 05:10:00,61.3,36.8,29.53,North,0,0.0,0.0,40,0.00,,---,0.00,VWS V14.01,2013-08-23 12:10:00,
2013-08-23 05:15:00,61.3,36.8,29.53,North,0,0.0,0.0,40,0.00,,---,0.00,VWS V14.01,2013-08-23 12:15:00,
2013-08-23 05:21:00,61.3,36.8,29.53,North,0,0.0,0.0,40,0.00,,---,0.00,VWS V14.01,2013-08-23 12:21:00,
2013-08-23 05:26:00,61.3,36.8,29.53,North,0,0.0,0.0,40,0.00,,---,0.00,VWS V14.01,2013-08-23 12:26:00,
2013-08-23 05:31:00,61.2,36.7,29.53,North,0,0.0,0.0,40,0.00,,---,0.00,VWS V14.01,2013-08-23 12:31:00,
2013-08-23 05:37:00,61.2,36.7,29.53,North,0,0.0,0.0,40,0.00,,---,0.00,VWS V14.01,2013-08-23 12:37:00,
2013-08-23 05:42:00,61.2,37.3,29.53,North,0,0.0,0.0,41,0.00,,---,0.00,VWS V14.01,2013-08-23 12:42:00,
2013-08-23 05:48:00,61.2,37.3,29.53,North,0,0.0,0.0,41,0.00,,---,0.00,VWS V14.01,2013-08-23 12:48:00,
2013-08-23 05:53:00,61.3,37.5,29.53,North,0,0.0,0.0,41,0.00,,---,0.00,VWS V14.01,2013-08-23 12:53:00,
2013-08-23 05:58:00,61.3,37.5,29.53,North,0,0.0,0.0,41,0.00,,---,0.00,VWS V14.01,2013-08-23 12:58:00,
2013-08-23 06:03:00,61.5,37.0,29.53,North,0,0.0,0.0,40,0.00,,---,0.00,VWS V14.01,2013-08-23 13:03:00,
2013-08-23 06:08:00,61.5,37.0,29.53,North,0,0.0,0.0,40,0.00,,---,0.00,VWS V14.01,2013-08-23 13:08:00,
2013-08-23 06:14:00,61.5,37.0,29.53,North,0,0.0,0.0,40,0.00,,---,0.00,VWS V14.01,2013-08-23 13:14:00,
2013-08-23 06:19:00,61.7,36.5,29.53,North,0,0.0,0.0,39,0.00,,---,0.00,VWS V14.01,2013-08-23 13:19:00,
2013-08-23 06:25:00,61.5,36.3,29.53,North,0,0.0,0.0,39,0.00,,---,0.00,VWS V14.01,2013-08-23 13:25:00,
2013-08-23 06:30:00,61.7,37.2,29.53,North,0,0.0,0.0,40,0.00,,---,0.00,VWS V14.01,2013-08-23 13:30:00,
2013-08-23 06:36:00,61.7,36.5,29.53,North,0,0.0,0.0,39,0.00,,---,0.00,VWS V14.01,2013-08-23 13:36:00,
2013-08-23 06:41:00,61.7,36.5,29.53,North,0,0.0,0.0,39,0.00,,---,0.00,VWS V14.01,2013-08-23 13:41:00,
2013-08-23 06:46:00,61.7,36.5,29.53,North,0,0.0,0.0,39,0.00,,---,0.00,VWS V14.01,2013-08-23 13:46:00,
2013-08-23 06:51:00,61.7,36.5,29.53,North,0,0.0,0.0,39,0.00,,---,0.00,VWS V14.01,2013-08-23 13:51:00,
2013-08-23 06:56:00,61.7,36.5,29.53,North,0,0.0,0.0,39,0.00,,---,0.00,VWS V14.01,2013-08-23 13:56:00,
2013-08-23 07:01:00,61.7,36.5,29.53,North,0,0.0,0.0,39,0.00,,---,0.00,VWS V14.01,2013-08-23 14:01:00,
2013-08-23 07:06:00,61.7,35.9,29.53,North,0,0.0,0.0,38,0.00,,---,0.00,VWS V14.01,2013-08-23 14:06:00,
2013-08-23 07:12:00,61.9,36.0,29.53,North,0,0.0,0.0,38,0.00,,---,0.00,VWS V14.01,2013-08-23 14:12:00,
2013-08-23 07:17:00,61.7,35.9,29.53,North,0,0.0,0.0,38,0.00,,---,0.00,VWS V14.01,2013-08-23 14:17:00,
2013-08-23 07:23:00,61.9,36.7,29.53,North,0,0.0,0.0,39,0.00,,---,0.00,VWS V14.01,2013-08-23 14:23:00,
2013-08-23 07:28:00,61.9,36.7,29.53,North,0,0.0,0.0,39,0.00,,---,0.00,VWS V14.01,2013-08-23 14:28:00,
2013-08-23 07:33:00,62.1,36.8,29.53,North,0,0.0,0.0,39,0.00,,---,0.00,VWS V14.01,2013-08-23 14:33:00,
2013-08-23 07:38:00,62.1,36.8,29.53,North,0,0.0,0.0,39,0.00,,---,0.00,VWS V14.01,2013-08-23 14:38:00,
2013-08-23 07:43:00,62.2,36.3,29.53,North,0,0.0,0.0,38,0.00,,---,0.00,VWS V14.01,2013-08-23 14:43:00,
2013-08-23 07:49:00,62.4,36.5,29.53,North,0,0.0,0.0,38,0.00,,---,0.00,VWS V14.01,2013-08-23 14:49:00,
2013-08-23 07:54:00,62.6,36.0,29.53,North,0,0.0,0.0,37,0.00,,---,0.00,VWS V14.01,2013-08-23 14:54:00,
2013-08-23 07:59:00,62.6,36.0,29.53,North,0,0.0,0.0,37,0.00,,---,0.00,VWS V14.01,2013-08-23 14:59:00,
2013-08-23 08:05:00,62.6,35.3,29.56,North,0,0.0,0.0,36,0.00,,---,0.00,VWS V14.01,2013-08-23 15:05:00,
2013-08-23 08:10:00,62.6,35.3,29.56,North,0,0.0,0.0,36,0.00,,---,0.00,VWS V14.01,2013-08-23 15:10:00,
2013-08-23 08:15:00,62.6,35.3,29.56,North,0,0.0,0.0,36,0.00,,---,0.00,VWS V14.01,2013-08-23 15:15:00,
2013-08-23 08:20:00,62.4,35.1,29.56,North,0,0.0,0.0,36,0.00,,---,0.00,VWS V14.01,2013-08-23 15:20:00,
2013-08-23 08:26:00,62.6,35.3,29.56,North,0,0.0,0.0,36,0.00,,---,0.00,VWS V14.01,2013-08-23 15:26:00,
2013-08-23 08:31:00,62.6,35.3,29.56,North,0,0.0,0.0,36,0.00,,---,0.00,VWS V14.01,2013-08-23 15:31:00,
2013-08-23 08:36:00,62.6,35.3,29.56,North,0,0.0,0.0,36,0.00,,---,0.00,VWS V14.01,2013-08-23 15:36:00,
2013-08-23 08:42:00,62.6,35.3,29.56,North,0,0.0,0.0,36,0.00,,---,0.00,VWS V14.01,2013-08-23 15:42:00,
2013-08-23 08:47:00,62.8,34.8,29.56,North,0,0.0,0.0,35,0.00,,---,0.00,VWS V14.01,2013-08-23 15:47:00,
2013-08-23 08:52:00,62.8,34.8,29.56,North,0,0.0,0.0,35,0.00,,---,0.00,VWS V14.01,2013-08-23 15:52:00,
2013-08-23 08:58:00,63.1,35.1,29.56,North,0,0.0,0.0,35,0.00,,---,0.00,VWS V14.01,2013-08-23 15:58:00,
2013-08-23 09:03:00,63.1,34.3,29.56,North,0,0.0,0.0,34,0.00,,---,0.00,VWS V14.01,2013-08-23 16:03:00,
2013-08-23 09:08:00,63.1,35.1,29.56,North,0,0.0,0.0,35,0.00,,---,0.00,VWS V14.01,2013-08-23 16:08:00,
2013-08-23 09:13:00,63.3,34.5,29.56,North,0,0.0,0.0,34,0.00,,---,0.00,VWS V14.01,2013-08-23 16:13:00,
2013-08-23 09:19:00,63.5,34.7,29.56,North,0,0.0,0.0,34,0.00,,---,0.00,VWS V14.01,2013-08-23 16:19:00,
2013-08-23 09:24:00,63.3,34.5,29.56,North,0,0.0,0.0,34,0.00,,---,0.00,VWS V14.01,2013-08-23 16:24:00,
2013-08-23 09:29:00,63.3,34.5,29.56,North,0,0.0,0.0,34,0.00,,---,0.00,VWS V14.01,2013-08-23 16:29:00,
2013-08-23 09:34:00,63.3,34.5,29.56,North,0,0.0,0.0,34,0.00,,---,0.00,VWS V14.01,2013-08-23 16:34:00,
2013-08-23 09:40:00,63.3,34.5,29.56,North,0,0.0,0.0,34,0.00,,---,0.00,VWS V14.01,2013-08-23 16:40:00,
2013-08-23 09:45:00,63.3,34.5,29.56,North,0,0.0,0.0,34,0.00,,---,0.00,VWS V14.01,2013-08-23 16:45:00,
2013-08-23 09:50:00,63.5,34.7,29.56,North,0,0.0,0.0,34,0.00,,---,0.00,VWS V14.01,2013-08-23 16:50:00,
2013-08-23 09:56:00,63.3,34.5,29.56,North,0,0.0,0.0,34,0.00,,---,0.00,VWS V14.01,2013-08-23 16:56:00,
2013-08-23 10:02:00,63.3,34.5,29.56,North,0,0.0,0.0,34,0.00,,---,0.00,VWS V14.01,2013-08-23 17:02:00,
2013-08-23 10:07:00,63.3,34.5,29.56,North,0,0.0,0.0,34,0.00,,---,0.00,VWS V14.01,2013-08-23 17:07:00,
2013-08-23 10:12:00,63.1,34.3,29.56,North,0,0.0,0.0,34,0.00,,---,0.00,VWS V14.01,2013-08-23 17:12:00,
2013-08-23 10:17:00,63.3,34.5,29.56,North,0,0.0,0.0,34,0.00,,---,0.00,VWS V14.01,2013-08-23 17:17:00,
2013-08-23 10:22:00,63.3,34.5,29.56,North,0,0.0,0.0,34,0.00,,---,0.00,VWS V14.01,2013-08-23 17:22:00,
2013-08-23 10:27:00,63.5,34.7,29.56,North,0,0.0,0.0,34,0.00,,---,0.00,VWS V14.01,2013-08-23 17:27:00,
2013-08-23 10:33:00,63.7,34.8,29.56,North,0,0.0,0.0,34,0.00,,---,0.00,VWS V14.01,2013-08-23 17:33:00,
2013-08-23 10:38:00,63.7,34.8,29.56,North,0,0.0,0.0,34,0.00,,---,0.00,VWS V14.01,2013-08-23 17:38:00,
2013-08-23 10:43:00,63.9,35.0,29.56,North,0,0.0,0.0,34,0.00,,---,0.00,VWS V14.01,2013-08-23 17:43:00,
2013-08-23 10:49:00,64.2,34.5,29.56,North,0,0.0,0.0,33,0.00,,---,0.00,VWS V14.01,2013-08-23 17:49:00,
2013-08-23 10:54:00,64.6,34.8,29.56,North,0,0.0,0.0,33,0.00,,---,0.00,VWS V14.01,2013-08-23 17:54:00,
2013-08-23 10:59:00,64.8,35.0,29.56,North,0,0.0,0.0,33,0.00,,---,0.00,VWS V14.01,2013-08-23 17:59:00,
2013-08-23 11:04:00,64.8,35.0,29.56,North,0,0.0,0.0,33,0.00,,---,0.00,VWS V14.01,2013-08-23 18:04:00,
2013-08-23 11:10:00,64.6,34.8,29.56,North,0,0.0,0.0,33,0.00,,---,0.00,VWS V14.01,2013-08-23 18:10:00,
2013-08-23 11:15:00,64.6,34.8,29.56,North,0,0.0,0.0,33,0.00,,---,0.00,VWS V14.01,2013-08-23 18:15:00,
2013-08-23 11:20:00,64.8,35.0,29.56,North,0,0.0,0.0,33,0.00,,---,0.00,VWS V14.01,2013-08-23 18:20:00,
2013-08-23 11:25:00,64.9,35.2,29.56,North,0,0.0,0.0,33,0.00,,---,0.00,VWS V14.01,2013-08-23 18:25:00,
2013-08-23 11:30:00,65.5,34.9,29.56,North,0,0.0,0.0,32,0.00,,---,0.00,VWS V14.01,2013-08-23 18:30:00,
2013-08-23 11:36:00,65.5,34.9,29.56,North,0,0.0,0.0,32,0.00,,---,0.00,VWS V14.01,2013-08-23 18:36:00,
2013-08-23 11:41:00,65.7,35.0,29.56,North,0,0.0,0.0,32,0.00,,---,0.00,VWS V14.01,2013-08-23 18:41:00,
2013-08-23 11:47:00,65.5,34.9,29.56,North,0,0.0,0.0,32,0.00,,---,0.00,VWS V14.01,2013-08-23 18:47:00,
2013-08-23 11:52:00,65.3,35.5,29.56,North,0,0.0,0.0,33,0.00,,---,0.00,VWS V14.01,2013-08-23 18:52:00,
2013-08-23 11:57:00,65.3,35.5,29.56,North,0,0.0,0.0,33,0.00,,---,0.00,VWS V14.01,2013-08-23 18:57:00,
2013-08-23 12:02:00,65.1,35.3,29.56,North,0,0.0,0.0,33,0.00,,---,0.00,VWS V14.01,2013-08-23 19:02:00,
2013-08-23 12:08:00,65.5,35.6,29.56,North,0,0.0,0.0,33,0.00,,---,0.00,VWS V14.01,2013-08-23 19:08:00,
2013-08-23 12:13:00,65.7,35.8,29.56,North,0,0.0,0.0,33,0.00,,---,0.00,VWS V14.01,2013-08-23 19:13:00,
2013-08-23 12:18:00,65.7,35.8,29.56,North,0,0.0,0.0,33,0.00,,---,0.00,VWS V14.01,2013-08-23 19:18:00,
2013-08-23 12:24:00,65.8,36.0,29.56,North,0,0.0,0.0,33,0.00,,---,0.00,VWS V14.01,2013-08-23 19:24:00,
2013-08-23 12:29:00,66.0,35.3,29.56,North,0,0.0,0.0,32,0.00,,---,0.00,VWS V14.01,2013-08-23 19:29:00,
2013-08-23 12:34:00,66.0,35.3,29.56,North,0,0.0,0.0,32,0.00,,---,0.00,VWS V14.01,2013-08-23 19:34:00,
2013-08-23 12:39:00,66.4,34.9,29.56,North,0,0.0,0.0,31,0.00,,---,0.00,VWS V14.01,2013-08-23 19:39:00,
2013-08-23 12:44:00,66.9,34.5,29.56,North,0,0.0,0.0,30,0.00,,---,0.00,VWS V14.01,2013-08-23 19:44:00,
2013-08-23 12:49:00,67.1,33.8,29.56,North,0,0.0,0.0,29,0.00,,---,0.00,VWS V14.01,2013-08-23 19:49:00,
2013-08-23 12:54:00,67.1,34.7,29.56,North,0,0.0,0.0,30,0.00,,---,0.00,VWS V14.01,2013-08-23 19:54:00,
2013-08-23 12:59:00,67.3,34.0,29.56,North,0,0.0,0.0,29,0.00,,---,0.00,VWS V14.01,2013-08-23 19:59:00,
2013-08-23 13:05:00,66.9,33.7,29.56,North,0,0.0,0.0,29,0.00,,---,0.00,VWS V14.01,2013-08-23 20:05:00,
2013-08-23 13:10:00,67.3,34.0,29.56,North,0,0.0,0.0,29,0.00,,---,0.00,VWS V14.01,2013-08-23 20:10:00,
2013-08-23 13:15:00,67.3,34.0,29.56,North,0,0.0,0.0,29,0.00,,---,0.00,VWS V14.01,2013-08-23 20:15:00,
2013-08-23 13:20:00,67.1,33.8,29.56,North,0,0.0,0.0,29,0.00,,---,0.00,VWS V14.01,2013-08-23 20:20:00,
2013-08-23 13:25:00,67.1,33.8,29.56,North,0,0.0,0.0,29,0.00,,---,0.00,VWS V14.01,2013-08-23 20:25:00,
2013-08-23 13:30:00,67.3,34.0,29.56,North,0,0.0,0.0,29,0.00,,---,0.00,VWS V14.01,2013-08-23 20:30:00,
2013-08-23 13:35:00,67.6,33.4,29.56,North,0,0.0,0.0,28,0.00,,---,0.00,VWS V14.01,2013-08-23 20:35:00,
2013-08-23 13:40:00,68.4,32.2,29.56,North,0,0.0,0.0,26,0.00,,---,0.00,VWS V14.01,2013-08-23 20:40:00,
2013-08-23 13:46:00,68.7,32.5,29.56,North,0,0.0,0.0,26,0.00,,---,0.00,VWS V14.01,2013-08-23 20:46:00,
2013-08-23 13:51:00,68.7,32.5,29.56,North,0,0.0,0.0,26,0.00,,---,0.00,VWS V14.01,2013-08-23 20:51:00,
2013-08-23 13:57:00,69.4,32.1,29.56,North,0,0.0,0.0,25,0.00,,---,0.00,VWS V14.01,2013-08-23 20:57:00,
2013-08-23 14:02:00,69.8,32.4,29.56,North,0,0.0,0.0,25,0.00,,---,0.00,VWS V14.01,2013-08-23 21:02:00,
2013-08-23 14:07:00,70.0,31.6,29.56,North,0,0.0,0.0,24,0.00,,---,0.00,VWS V14.01,2013-08-23 21:07:00,
2013-08-23 14:12:00,70.2,31.7,29.56,North,0,0.0,0.0,24,0.00,,---,0.00,VWS V14.01,2013-08-23 21:12:00,
2013-08-23 14:17:00,70.5,32.0,29.53,North,0,0.0,0.0,24,0.00,,---,0.00,VWS V14.01,2013-08-23 21:17:00,
2013-08-23 14:23:00,70.9,31.3,29.53,North,0,0.0,0.0,23,0.00,,---,0.00,VWS V14.01,2013-08-23 21:23:00,
2013-08-23 14:28:00,70.5,31.0,29.53,North,0,0.0,0.0,23,0.00,,---,0.00,VWS V14.01,2013-08-23 21:28:00,
2013-08-23 14:33:00,71.1,31.4,29.56,North,0,0.0,0.0,23,0.00,,---,0.00,VWS V14.01,2013-08-23 21:33:00,
2013-08-23 14:38:00,71.8,30.9,29.56,North,0,0.0,0.0,22,0.00,,---,0.00,VWS V14.01,2013-08-23 21:38:00,
2013-08-23 14:44:00,72.0,31.1,29.56,North,0,0.0,0.0,22,0.00,,---,0.00,VWS V14.01,2013-08-23 21:44:00,
2013-08-23 14:49:00,71.8,30.9,29.56,North,0,0.0,0.0,22,0.00,,---,0.00,VWS V14.01,2013-08-23 21:49:00,
2013-08-23 14:54:00,71.6,30.8,29.56,North,0,0.0,0.0,22,0.00,,---,0.00,VWS V14.01,2013-08-23 21:54:00,
2013-08-23 15:00:00,71.6,30.8,29.56,North,0,0.0,0.0,22,0.00,,---,0.00,VWS V14.01,2013-08-23 22:00:00,
2013-08-23 15:05:00,72.1,31.2,29.56,North,0,0.0,0.0,22,0.00,,---,0.00,VWS V14.01,2013-08-23 22:05:00,
2013-08-23 15:10:00,72.7,31.7,29.56,North,0,0.0,0.0,22,0.00,,---,0.00,VWS V14.01,2013-08-23 22:10:00,
2013-08-23 15:15:00,73.9,32.7,29.56,North,0,0.0,0.0,22,0.00,,---,0.00,VWS V14.01,2013-08-23 22:15:00,
2013-08-23 15:21:00,73.8,32.6,29.56,North,0,0.0,0.0,22,0.00,,---,0.00,VWS V14.01,2013-08-23 22:21:00,
2013-08-23 15:26:00,73.8,32.6,29.56,North,0,0.0,0.0,22,0.00,,---,0.00,VWS V14.01,2013-08-23 22:26:00,
2013-08-23 15:31:00,74.1,31.7,29.56,North,0,0.0,0.0,21,0.00,,---,0.00,VWS V14.01,2013-08-23 22:31:00,
2013-08-23 15:37:00,73.6,31.3,29.56,North,0,0.0,0.0,21,0.00,,---,0.00,VWS V14.01,2013-08-23 22:37:00,
2013-08-23 15:42:00,73.4,31.1,29.56,North,0,0.0,0.0,21,0.00,,---,0.00,VWS V14.01,2013-08-23 22:42:00,
2013-08-23 15:47:00,73.4,31.1,29.53,North,0,0.0,0.0,21,0.00,,---,0.00,VWS V14.01,2013-08-23 22:47:00,
2013-08-23 15:52:00,73.0,32.0,29.53,North,0,0.0,0.0,22,0.00,,---,0.00,VWS V14.01,2013-08-23 22:52:00,
2013-08-23 15:58:00,74.3,31.9,29.53,North,0,0.0,0.0,21,0.00,,---,0.00,VWS V14.01,2013-08-23 22:58:00,
2013-08-23 16:03:00,75.7,33.1,29.53,North,0,0.0,0.0,21,0.00,,---,0.00,VWS V14.01,2013-08-23 23:03:00,
2013-08-23 16:08:00,75.7,33.1,29.53,North,0,0.0,0.0,21,0.00,,---,0.00,VWS V14.01,2013-08-23 23:08:00,
2013-08-23 16:14:00,74.1,31.7,29.53,North,0,0.0,0.0,21,0.00,,---,0.00,VWS V14.01,2013-08-23 23:14:00,
2013-08-23 16:19:00,73.8,31.4,29.56,North,0,0.0,0.0,21,0.00,,---,0.00,VWS V14.01,2013-08-23 23:19:00,
2013-08-23 16:24:00,73.6,31.3,29.56,North,0,0.0,0.0,21,0.00,,---,0.00,VWS V14.01,2013-08-23 23:24:00,
2013-08-23 16:29:00,73.2,32.1,29.56,North,0,0.0,0.0,22,0.00,,---,0.00,VWS V14.01,2013-08-23 23:29:00,
2013-08-23 16:35:00,73.6,31.3,29.53,North,0,0.0,0.0,21,0.00,,---,0.00,VWS V14.01,2013-08-23 23:35:00,
2013-08-23 16:40:00,73.4,31.1,29.53,North,0,0.0,0.0,21,0.00,,---,0.00,VWS V14.01,2013-08-23 23:40:00,
2013-08-23 16:45:00,73.4,31.1,29.53,North,0,0.0,0.0,21,0.00,,---,0.00,VWS V14.01,2013-08-23 23:45:00,
2013-08-23 16:51:00,73.2,32.1,29.53,North,0,0.0,0.0,22,0.00,,---,0.00,VWS V14.01,2013-08-23 23:51:00,
2013-08-23 16:56:00,73.2,32.1,29.53,North,0,0.0,0.0,22,0.00,,---,0.00,VWS V14.01,2013-08-23 23:56:00,
2013-08-23 17:01:00,73.0,32.0,29.53,North,0,0.0,0.0,22,0.00,,---,0.00,VWS V14.01,2013-08-24 00:01:00,
2013-08-23 17:06:00,72.7,31.7,29.53,North,0,0.0,0.0,22,0.00,,---,0.00,VWS V14.01,2013-08-24 00:06:00,
2013-08-23 17:12:00,72.7,31.7,29.53,North,0,0.0,0.0,22,0.00,,---,0.00,VWS V14.01,2013-08-24 00:12:00,
2013-08-23 17:17:00,72.3,31.4,29.53,North,0,0.0,0.0,22,0.00,,---,0.00,VWS V14.01,2013-08-24 00:17:00,
2013-08-23 17:23:00,72.5,31.5,29.53,North,0,0.0,0.0,22,0.00,,---,0.00,VWS V14.01,2013-08-24 00:23:00,
2013-08-23 17:28:00,71.8,30.9,29.53,North,0,0.0,0.0,22,0.00,,---,0.00,VWS V14.01,2013-08-24 00:28:00,
2013-08-23 17:34:00,71.6,30.8,29.53,North,0,0.0,0.0,22,0.00,,---,0.00,VWS V14.01,2013-08-24 00:34:00,
2013-08-23 17:39:00,71.8,30.9,29.53,North,0,0.0,0.0,22,0.00,,---,0.00,VWS V14.01,2013-08-24 00:39:00,
2013-08-23 17:44:00,72.0,31.1,29.53,North,0,0.0,0.0,22,0.00,,---,0.00,VWS V14.01,2013-08-24 00:44:00,
2013-08-23 17:50:00,72.5,31.5,29.53,North,0,0.0,0.0,22,0.00,,---,0.00,VWS V14.01,2013-08-24 00:50:00,
2013-08-23 17:55:00,73.2,32.1,29.53,North,0,0.0,0.0,22,0.00,,---,0.00,VWS V14.01,2013-08-24 00:55:00,
2013-08-23 18:00:00,73.6,31.3,29.53,North,0,0.0,0.0,21,0.00,,---,0.00,VWS V14.01,2013-08-24 01:00:00,
2013-08-23 18:05:00,73.2,32.1,29.53,North,0,0.0,0.0,22,0.00,,---,0.00,VWS V14.01,2013-08-24 01:05:00,
2013-08-23 18:10:00,72.7,31.7,29.53,North,0,0.0,0.0,22,0.00,,---,0.00,VWS V14.01,2013-08-24 01:10:00,
2013-08-23 18:15:00,72.5,31.5,29.53,North,0,0.0,0.0,22,0.00,,---,0.00,VWS V14.01,2013-08-24 01:15:00,
2013-08-23 18:21:00,73.0,32.0,29.53,North,0,0.0,0.0,22,0.00,,---,0.00,VWS V14.01,2013-08-24 01:21:00,
2013-08-23 18:26:00,72.7,31.7,29.53,North,0,0.0,0.0,22,0.00,,---,0.00,VWS V14.01,2013-08-24 01:26:00,
2013-08-23 18:31:00,72.3,31.4,29.53,North,0,0.0,0.0,22,0.00,,---,0.00,VWS V14.01,2013-08-24 01:31:00,
2013-08-23 18:36:00,72.3,31.4,29.53,North,0,0.0,0.0,22,0.00,,---,0.00,VWS V14.01,2013-08-24 01:36:00,
2013-08-23 18:42:00,72.1,31.2,29.53,North,0,0.0,0.0,22,0.00,,---,0.00,VWS V14.01,2013-08-24 01:42:00,
2013-08-23 18:47:00,71.4,30.6,29.53,North,0,0.0,0.0,22,0.00,,---,0.00,VWS V14.01,2013-08-24 01:47:00,
2013-08-23 18:52:00,71.1,31.4,29.53,North,0,0.0,0.0,23,0.00,,---,0.00,VWS V14.01,2013-08-24 01:52:00,
2013-08-23 18:57:00,70.9,31.3,29.53,North,0,0.0,0.0,23,0.00,,---,0.00,VWS V14.01,2013-08-24 01:57:00,
2013-08-23 19:03:00,70.7,31.1,29.53,North,0,0.0,0.0,23,0.00,,---,0.00,VWS V14.01,2013-08-24 02:03:00,
2013-08-23 19:08:00,70.3,30.8,29.53,North,0,0.0,0.0,23,0.00,,---,0.00,VWS V14.01,2013-08-24 02:08:00,
2013-08-23 19:13:00,69.8,30.4,29.53,North,0,0.0,0.0,23,0.00,,---,0.00,VWS V14.01,2013-08-24 02:13:00,
2013-08-23 19:19:00,69.6,30.2,29.53,North,0,0.0,0.0,23,0.00,,---,0.00,VWS V14.01,2013-08-24 02:19:00,
2013-08-23 19:25:00,69.4,30.1,29.53,North,0,0.0,0.0,23,0.00,,---,0.00,VWS V14.01,2013-08-24 02:25:00,
2013-08-23 19:30:00,69.4,30.1,29.53,North,0,0.0,0.0,23,0.00,,---,0.00,VWS V14.01,2013-08-24 02:30:00,
2013-08-23 19:35:00,69.4,30.1,29.53,North,0,0.0,0.0,23,0.00,,---,0.00,VWS V14.01,2013-08-24 02:35:00,
2013-08-23 19:40:00,69.3,29.9,29.53,North,0,0.0,0.0,23,0.00,,---,0.00,VWS V14.01,2013-08-24 02:40:00,
2013-08-23 19:45:00,69.1,29.8,29.53,North,0,0.0,0.0,23,0.00,,---,0.00,VWS V14.01,2013-08-24 02:45:00,
2013-08-23 19:50:00,68.9,29.6,29.53,North,0,0.0,0.0,23,0.00,,---,0.00,VWS V14.01,2013-08-24 02:50:00,
2013-08-23 19:56:00,68.7,29.5,29.53,North,0,0.0,0.0,23,0.00,,---,0.00,VWS V14.01,2013-08-24 02:56:00,
2013-08-23 20:01:00,68.5,29.3,29.53,North,0,0.0,0.0,23,0.00,,---,0.00,VWS V14.01,2013-08-24 03:01:00,
2013-08-23 20:06:00,68.4,29.1,29.53,North,0,0.0,0.0,23,0.00,,---,0.00,VWS V14.01,2013-08-24 03:06:00,
2013-08-23 20:11:00,68.2,29.0,29.53,North,0,0.0,0.0,23,0.00,,---,0.00,VWS V14.01,2013-08-24 03:11:00,
2013-08-23 20:17:00,68.0,28.9,29.53,North,0,0.0,0.0,23,0.00,,---,0.00,VWS V14.01,2013-08-24 03:17:00,
2013-08-23 20:22:00,68.0,28.9,29.53,North,0,0.0,0.0,23,0.00,,---,0.00,VWS V14.01,2013-08-24 03:22:00,
2013-08-23 20:27:00,67.8,29.7,29.53,North,0,0.0,0.0,24,0.00,,---,0.00,VWS V14.01,2013-08-24 03:27:00,
2013-08-23 20:33:00,67.6,29.6,29.53,North,0,0.0,0.0,24,0.00,,---,0.00,VWS V14.01,2013-08-24 03:33:00,
2013-08-23 20:38:00,67.5,29.4,29.53,North,0,0.0,0.0,24,0.00,,---,0.00,VWS V14.01,2013-08-24 03:38:00,
2013-08-23 20:43:00,67.3,29.3,29.53,North,0,0.0,0.0,24,0.00,,---,0.00,VWS V14.01,2013-08-24 03:43:00,
2013-08-23 20:48:00,67.3,29.3,29.56,North,0,0.0,0.0,24,0.00,,---,0.00,VWS V14.01,2013-08-24 03:48:00,
2013-08-23 20:54:00,67.3,29.3,29.56,North,0,0.0,0.0,24,0.00,,---,0.00,VWS V14.01,2013-08-24 03:54:00,
2013-08-23 21:00:00,67.1,29.1,29.56,North,0,0.0,0.0,24,0.00,,---,0.00,VWS V14.01,2013-08-24 04:00:00,
2013-08-23 21:02:00,67.1,30.1,29.56,North,0,0.0,0.0,25,0.00,,---,0.00,VWS V14.01,2013-08-24 04:02:00,
2013-08-23 21:03:00,67.1,30.1,29.56,North,0,0.0,0.0,25,0.00,,---,0.00,VWS V14.01,2013-08-24 04:03:00,
2013-08-23 21:04:00,67.1,30.1,29.56,North,0,0.0,0.0,25,0.00,,---,0.00,VWS V14.01,2013-08-24 04:04:00,
2013-08-23 21:05:00,67.1,30.1,29.56,North,0,0.0,0.0,25,0.00,,---,0.00,VWS V14.01,2013-08-24 04:05:00,
2013-08-23 21:06:00,66.9,30.0,29.56,North,0,0.0,0.0,25,0.00,,---,0.00,VWS V14.01,2013-08-24 04:06:00,
2013-08-23 21:11:00,66.7,29.8,29.56,North,0,0.0,0.0,25,0.00,,---,0.00,VWS V14.01,2013-08-24 04:11:00,
2013-08-23 21:16:00,66.7,29.8,29.56,North,0,0.0,0.0,25,0.00,,---,0.00,VWS V14.01,2013-08-24 04:16:00,
2013-08-23 21:21:00,66.6,29.7,29.56,North,0,0.0,0.0,25,0.00,,---,0.00,VWS V14.01,2013-08-24 04:21:00,
2013-08-23 21:26:00,66.6,30.6,29.56,North,0,0.0,0.0,26,0.00,,---,0.00,VWS V14.01,2013-08-24 04:26:00,
2013-08-23 21:31:00,66.6,30.6,29.56,North,0,0.0,0.0,26,0.00,,---,0.00,VWS V14.01,2013-08-24 04:31:00,
2013-08-23 21:36:00,66.4,30.5,29.56,North,0,0.0,0.0,26,0.00,,---,0.00,VWS V14.01,2013-08-24 04:36:00,
2013-08-23 21:41:00,66.4,30.5,29.56,North,0,0.0,0.0,26,0.00,,---,0.00,VWS V14.01,2013-08-24 04:41:00,
2013-08-23 21:47:00,66.2,31.3,29.56,North,0,0.0,0.0,27,0.00,,---,0.00,VWS V14.01,2013-08-24 04:47:00,
2013-08-23 21:52:00,66.0,31.1,29.56,North,0,0.0,0.0,27,0.00,,---,0.00,VWS V14.01,2013-08-24 04:52:00,
2013-08-23 21:57:00,65.8,31.9,29.56,North,0,0.0,0.0,28,0.00,,---,0.00,VWS V14.01,2013-08-24 04:57:00,
2013-08-23 22:02:00,65.8,31.9,29.56,North,0,0.0,0.0,28,0.00,,---,0.00,VWS V14.01,2013-08-24 05:02:00,
2013-08-23 22:07:00,65.7,32.6,29.56,North,0,0.0,0.0,29,0.00,,---,0.00,VWS V14.01,2013-08-24 05:07:00,
2013-08-23 22:12:00,65.7,32.6,29.56,North,0,0.0,0.0,29,0.00,,---,0.00,VWS V14.01,2013-08-24 05:12:00,
2013-08-23 22:17:00,65.5,32.4,29.56,North,0,0.0,0.0,29,0.00,,---,0.00,VWS V14.01,2013-08-24 05:17:00,
2013-08-23 22:22:00,65.5,33.3,29.56,North,0,0.0,0.0,30,0.00,,---,0.00,VWS V14.01,2013-08-24 05:22:00,
2013-08-23 22:28:00,65.3,33.1,29.56,North,0,0.0,0.0,30,0.00,,---,0.00,VWS V14.01,2013-08-24 05:28:00,
2013-08-23 22:34:00,65.3,33.1,29.56,North,0,0.0,0.0,30,0.00,,---,0.00,VWS V14.01,2013-08-24 05:34:00,
2013-08-23 22:39:00,65.1,32.9,29.56,North,0,0.0,0.0,30,0.00,,---,0.00,VWS V14.01,2013-08-24 05:39:00,
2013-08-23 22:44:00,64.9,33.6,29.56,North,0,0.0,0.0,31,0.00,,---,0.00,VWS V14.01,2013-08-24 05:44:00,
2013-08-23 22:49:00,64.8,33.5,29.56,North,0,0.0,0.0,31,0.00,,---,0.00,VWS V14.01,2013-08-24 05:49:00,
2013-08-23 22:54:00,64.6,34.1,29.56,North,0,0.0,0.0,32,0.00,,---,0.00,VWS V14.01,2013-08-24 05:54:00,
2013-08-23 22:59:00,64.4,33.9,29.56,North,0,0.0,0.0,32,0.00,,---,0.00,VWS V14.01,2013-08-24 05:59:00,
2013-08-23 23:04:00,64.4,34.7,29.56,North,0,0.0,0.0,33,0.00,,---,0.00,VWS V14.01,2013-08-24 06:04:00,
2013-08-23 23:09:00,64.2,34.5,29.56,North,0,0.0,0.0,33,0.00,,---,0.00,VWS V14.01,2013-08-24 06:09:00,
2013-08-23 23:14:00,64.0,34.4,29.56,North,0,0.0,0.0,33,0.00,,---,0.00,VWS V14.01,2013-08-24 06:14:00,
2013-08-23 23:19:00,64.0,35.1,29.56,North,0,0.0,0.0,34,0.00,,---,0.00,VWS V14.01,2013-08-24 06:19:00,
2013-08-23 23:25:00,63.9,35.0,29.56,North,0,0.0,0.0,34,0.00,,---,0.00,VWS V14.01,2013-08-24 06:25:00,
2013-08-23 23:30:00,63.9,35.0,29.56,North,0,0.0,0.0,34,0.00,,---,0.00,VWS V14.01,2013-08-24 06:30:00,
2013-08-23 23:35:00,63.9,35.0,29.56,North,0,0.0,0.0,34,0.00,,---,0.00,VWS V14.01,2013-08-24 06:35:00,
2013-08-23 23:40:00,63.7,34.8,29.56,North,0,0.0,0.0,34,0.00,,---,0.00,VWS V14.01,2013-08-24 06:40:00,
2013-08-23 23:46:00,63.5,34.7,29.56,North,0,0.0,0.0,34,0.00,,---,0.00,VWS V14.01,2013-08-24 06:46:00,
2013-08-23 23:51:00,63.3,35.2,29.56,North,0,0.0,0.0,35,0.00,,---,0.00,VWS V14.01,2013-08-24 06:51:00,
2013-08-23 23:56:00,63.3,35.2,29.56,North,0,0.0,0.0,35,0.00,,---,0.00,VWS V14.01,2013-08-24 06:56:00,